TimeCST,TemperatureF,Dew PointF,Humidity,Sea Level PressureIn,VisibilityMPH,Wind Direction,Wind SpeedMPH,Gust SpeedMPH,PrecipitationIn,Events,Conditions,WindDirDegrees,DateUTC
12:53 AM,21.0,15.1,78,30.01,10.0,SE,23.0,29.9,N/A,,Clear,130,2012-02-26 06:53:00
1:53 AM,21.2,15.8,80,29.91,10.0,SE,24.2,31.1,N/A,,Clear,130,2012-02-26 07:53:00
2:53 AM,23.0,15.1,72,29.89,10.0,SE,24.2,32.2,N/A,,Mostly Cloudy,130,2012-02-26 08:53:00
3:53 AM,26.1,16.0,66,29.84,10.0,SSE,27.6,40.3,N/A,,Clear,150,2012-02-26 09:53:00
4:53 AM,25.0,17.1,72,29.81,10.0,SE,21.9,31.1,N/A,,Clear,140,2012-02-26 10:53:00
5:53 AM,26.1,18.0,71,29.78,10.0,SSE,17.3,27.6,N/A,,Clear,150,2012-02-26 11:53:00
6:53 AM,27.0,19.0,72,29.76,10.0,SSE,20.7,28.8,N/A,,Clear,150,2012-02-26 12:53:00
7:53 AM,30.0,21.0,69,29.74,10.0,SSE,20.7,-,N/A,,Clear,160,2012-02-26 13:53:00
8:53 AM,36.0,24.1,62,29.75,10.0,South,20.7,27.6,N/A,,Clear,180,2012-02-26 14:53:00
9:53 AM,41.0,27.0,57,29.75,10.0,SSW,20.7,33.4,N/A,,Clear,210,2012-02-26 15:53:00
10:53 AM,42.1,28.9,60,29.77,10.0,WSW,24.2,28.8,N/A,,Clear,240,2012-02-26 16:53:00
11:53 AM,46.0,30.9,56,29.77,10.0,SW,26.5,36.8,N/A,,Clear,230,2012-02-26 17:53:00
12:53 PM,43.0,27.0,53,29.80,10.0,WSW,33.4,42.6,N/A,,Partly Cloudy,250,2012-02-26 18:53:00
1:53 PM,43.0,26.1,51,29.82,10.0,WSW,34.5,52.9,N/A,,Clear,250,2012-02-26 19:53:00
2:53 PM,41.0,24.1,51,29.85,10.0,West,26.5,38.0,N/A,,Clear,260,2012-02-26 20:53:00
3:53 PM,37.9,23.0,55,29.90,10.0,West,31.1,40.3,N/A,,Clear,270,2012-02-26 21:53:00
4:53 PM,35.1,23.0,61,29.94,10.0,West,19.6,35.7,N/A,,Partly Cloudy,260,2012-02-26 22:53:00
5:53 PM,30.9,19.0,61,29.99,10.0,West,24.2,38.0,N/A,,Clear,260,2012-02-26 23:53:00
6:53 PM,30.0,18.0,61,30.03,10.0,West,23.0,28.8,N/A,,Clear,260,2012-02-27 00:53:00
7:53 PM,28.0,18.0,66,30.05,10.0,West,17.3,-,N/A,,Clear,270,2012-02-27 01:53:00
8:53 PM,27.0,17.1,66,30.06,10.0,West,23.0,31.1,N/A,,Clear,270,2012-02-27 02:53:00
9:53 PM,26.1,16.0,66,30.09,10.0,West,24.2,28.8,N/A,,Clear,270,2012-02-27 03:53:00
10:53 PM,24.1,16.0,71,30.12,10.0,West,20.7,29.9,N/A,,Clear,270,2012-02-27 04:53:00
11:53 PM,23.0,16.0,74,30.13,10.0,West,18.4,25.3,N/A,,Clear,270,2012-02-27 05:53:00